User: anonymous   Login
Location: Oriwa
(40.7500°S, 175.3333°E)
Time: 02:54:26
(UTC+00:00)
Language:

NPP - Orbit

View from above orbital plane
View from above orbital plane
View from above satellite
View from above satellite

Ground track
Ground track

The orbit data is extracted from the following two-line orbital elements,

1 37849U 11061A   23147.87214348  .00000102  00000-0  69005-4 0  9991
2 37849  98.7036  86.9355 0001091  69.5805 358.8300 14.19563208600053
Epoch (UTC): 27 May 2023 20:55:53
Eccentricity: 0.0001091
inclination: 98.7036°
perigee height: 826 km
apogee height: 827 km
right ascension of ascending node: 86.9355°
argument of perigee: 69.5805°
revolutions per day: 14.19563208
mean anomaly at epoch: 358.8300°
orbit number at epoch: 60005

The dashed part of the orbit path shows where the satellite is in the earth's shadow,  

DLR